Theta_e
334 332 329 327 327 328 328 325 324 327 331 331 330 330 330 330 324 316 316 318 319 322 324 321 316 315 318 320 320 320 322 323 325 324 323 323 321 319 320 322 323 324 324 324 324 325 325 325 325 326 327 326 328 328 328 328 327 328 328 329 329 328 328 327 327 327 324 324 325 325 326 326 325 325 327 328 327 327 327 328 328 327 328 328 327
332 330 329 327 326 329 330 329 328 329 332 331 332 331 330 330 322 313 316 318 316 318 319 316 315 316 318 319 319 319 320 322 323 323 323 322 323 323 320 320 322 321 321 323 324 323 323 323 322 324 325 325 326 327 328 327 328 328 328 328 329 328 328 328 328 328 327 326 326 325 324 324 324 324 326 328 327 327 327 327 328 327 327 328 328
330 328 328 328 327 331 332 332 331 331 332 333 332 331 330 328 318 314 316 315 314 315 316 317 318 318 318 318 319 319 320 321 319 320 320 320 322 322 318 318 321 320 320 322 322 321 322 321 320 322 323 324 324 325 326 327 327 327 328 328 329 328 328 328 328 328 327 327 327 326 323 323 323 324 326 326 326 327 327 328 327 327 327 328 328
328 327 327 327 330 333 334 333 333 333 333 333 332 331 329 323 316 315 316 314 315 316 318 319 319 320 319 319 319 317 319 319 316 316 316 315 316 315 314 316 318 319 320 321 320 319 320 320 320 322 323 323 323 323 323 325 326 327 327 327 328 328 327 327 328 328 327 326 327 327 325 324 325 324 324 324 325 325 326 327 327 327 327 327 328
327 327 326 327 330 334 334 333 333 333 333 333 331 329 324 318 315 316 316 316 319 319 319 319 319 321 321 320 320 319 319 315 309 310 310 309 310 312 316 318 317 316 317 320 320 320 319 318 319 322 323 323 323 323 322 323 325 325 326 327 327 327 327 327 327 327 327 327 327 327 326 326 325 324 325 325 324 324 324 325 326 326 326 326 327
329 329 328 329 332 333 334 334 333 333 333 333 330 324 319 316 316 317 317 317 319 319 319 318 319 320 319 319 318 319 318 311 307 307 307 307 308 312 317 319 319 316 316 320 321 320 319 318 319 321 323 323 323 323 323 323 323 324 325 326 326 327 327 327 327 327 327 327 327 326 326 327 326 326 327 326 325 325 324 324 324 324 324 324 324
331 332 331 333 334 333 333 333 333 333 332 332 329 321 316 316 315 317 318 316 316 318 319 318 318 319 318 317 316 316 313 309 308 308 307 307 307 308 312 315 316 314 315 320 321 320 320 319 319 320 321 322 322 322 323 323 323 324 325 325 326 326 326 327 327 327 327 327 327 326 325 326 327 327 327 326 326 325 324 323 323 322 322 322 323
331 332 332 332 334 332 333 334 333 333 332 333 330 321 317 316 314 315 317 316 315 317 319 317 318 318 319 318 316 314 311 308 308 307 307 307 307 307 307 308 310 310 313 319 320 320 320 320 319 320 321 321 321 321 322 323 323 323 323 324 326 326 326 326 326 327 327 327 327 326 326 325 327 327 326 324 324 323 323 323 323 323 323 323 322
329 331 331 331 332 332 332 333 333 333 333 333 331 325 318 317 317 315 315 316 316 318 318 317 318 318 319 319 314 312 310 308 307 307 307 307 307 307 307 306 306 307 311 317 319 319 319 319 319 320 321 321 321 321 321 321 321 319 319 320 324 325 325 326 326 326 327 327 326 326 326 326 326 325 324 323 323 323 323 323 323 323 323 322 322
329 329 330 329 330 332 331 333 333 333 333 332 332 329 323 320 321 318 315 315 317 320 319 318 319 318 319 317 312 310 311 308 307 307 307 307 307 307 307 307 307 306 307 313 318 319 318 317 317 318 319 319 319 320 319 319 317 314 314 317 321 324 325 325 325 325 325 325 326 326 326 325 325 324 324 323 323 323 323 322 322 321 320 320 321
330 329 330 330 331 331 331 332 333 333 333 333 332 331 329 325 324 322 317 314 316 320 320 320 319 316 314 313 310 310 310 308 308 307 307 307 308 307 307 307 307 306 306 308 312 315 314 312 311 312 311 311 312 312 312 311 308 307 308 311 316 320 321 321 320 321 323 323 323 323 324 325 325 324 323 324 323 323 322 320 319 317 316 318 319
330 330 331 330 331 330 330 332 333 334 334 333 333 331 331 330 327 328 324 316 316 321 323 320 316 311 310 310 310 310 309 308 308 307 307 308 308 308 308 307 307 307 306 306 307 308 308 307 306 306 306 306 306 306 306 306 305 305 305 306 309 311 312 312 310 313 318 320 321 321 322 323 323 323 323 323 323 322 322 320 320 319 316 316 316
329 329 330 330 330 330 330 330 331 332 333 333 333 332 333 333 332 332 330 324 320 323 326 322 312 309 311 312 312 312 310 309 308 308 307 308 308 307 307 308 307 307 307 307 306 306 306 306 306 306 306 306 306 306 307 306 306 306 306 306 307 306 307 307 306 307 310 314 317 318 320 320 320 322 322 320 319 318 319 319 318 317 315 313 315
327 328 328 328 328 328 328 329 329 330 331 332 334 333 334 335 335 333 332 329 324 322 325 322 311 309 314 314 315 316 314 310 308 309 308 308 308 308 307 307 307 307 307 307 307 307 306 306 306 306 306 306 306 307 306 306 306 307 306 306 306 306 306 306 306 306 306 308 309 311 312 312 313 314 314 311 309 308 309 310 310 310 309 310 314
328 328 328 327 327 327 327 328 327 328 329 331 333 334 336 335 332 329 328 328 326 324 325 320 311 312 317 316 317 319 318 313 308 308 309 308 308 308 308 308 307 307 307 307 307 307 306 307 307 307 307 307 307 307 307 306 306 306 306 306 306 306 306 306 306 306 306 306 306 306 306 306 306 307 306 305 305 305 305 305 305 306 307 310 314
329 329 328 328 328 328 327 327 326 327 327 329 331 333 335 335 330 326 326 327 326 326 327 321 312 315 319 317 316 320 320 315 310 310 309 309 310 309 309 309 308 308 308 307 307 307 307 307 307 307 307 307 307 307 306 307 306 306 306 306 306 306 305 306 305 305 305 305 305 305 304 304 304 304 304 304 304 304 304 304 304 304 305 308 312
326 328 328 328 328 328 328 327 327 327 326 327 328 329 332 334 331 328 326 324 323 324 327 322 315 315 317 316 316 318 320 317 313 311 311 311 311 312 312 312 310 309 309 309 309 308 308 307 308 307 307 307 307 307 307 306 306 306 306 305 305 305 305 305 305 305 305 304 304 304 304 304 304 304 303 303 303 303 303 304 303 303 304 305 307
324 326 326 327 328 328 328 328 329 329 328 328 327 327 329 330 329 328 326 324 322 324 327 323 317 315 315 315 315 316 319 319 316 313 312 313 314 314 314 314 313 312 310 310 310 310 309 309 309 309 308 308 308 307 308 307 307 307 306 306 306 305 305 305 305 305 304 304 304 304 304 303 303 304 303 304 304 303 303 303 303 303 303 303 303
324 325 325 327 327 328 329 329 330 331 330 330 330 329 329 327 325 326 326 324 324 326 328 325 318 315 314 314 314 315 317 319 319 316 315 316 316 315 315 315 314 313 311 311 311 310 311 311 311 310 310 310 310 309 308 308 308 307 307 307 306 306 306 305 306 306 305 305 304 304 304 304 304 304 304 304 304 304 304 305 304 304 304 305 305
325 325 325 326 326 327 328 328 330 330 330 330 330 329 330 328 326 325 325 324 325 327 328 324 318 314 312 313 313 314 317 319 320 318 316 317 317 317 316 316 315 313 313 312 312 312 312 312 312 312 312 312 311 311 310 310 310 309 308 308 307 307 307 306 306 306 306 306 306 306 306 306 305 305 305 305 305 305 306 307 307 307 307 307 307
325 324 325 325 325 325 326 327 328 328 328 328 328 328 328 328 327 326 325 324 326 327 327 324 319 313 311 312 312 314 317 319 320 320 318 318 318 318 318 317 316 314 314 313 313 314 314 314 314 314 314 314 314 313 312 312 311 311 310 310 309 308 308 307 307 307 307 307 307 306 306 306 307 306 307 306 306 306 307 307 307 307 307 307 307
324 324 325 325 325 325 325 326 326 326 327 326 327 327 326 326 326 326 326 325 325 325 325 325 321 315 311 313 315 317 317 319 320 320 320 319 319 319 319 318 317 316 315 314 314 315 315 316 316 316 316 316 316 316 315 314 313 313 313 313 312 311 310 309 308 308 307 307 307 306 306 306 306 306 307 306 306 307 307 307 306 306 306 306 306
324 324 324 324 325 325 325 326 325 325 326 325 325 326 325 326 326 325 326 324 324 325 325 324 320 315 313 316 320 319 318 320 320 319 320 320 319 319 320 319 319 318 317 317 315 315 316 316 316 316 316 316 317 317 317 317 316 316 316 315 315 315 314 313 312 310 309 309 309 308 307 306 306 306 306 306 306 306 306 306 306 305 305 305 305
324 324 324 323 324 324 325 325 325 325 325 325 325 325 325 325 325 325 326 324 324 324 324 323 320 317 318 321 322 321 319 320 320 318 319 320 320 320 320 320 320 319 319 318 318 317 317 318 318 318 318 317 317 317 317 317 317 318 318 318 318 317 317 316 315 314 312 311 311 310 309 308 307 306 306 306 306 305 305 305 305 305 305 305 304
321 320 320 320 321 322 323 324 325 324 324 324 325 324 324 325 324 325 324 324 324 322 322 322 320 320 321 322 323 322 321 321 319 318 320 319 319 319 320 320 320 319 319 319 319 319 319 318 318 318 318 318 318 318 318 318 317 318 319 319 319 318 318 318 317 316 315 314 313 312 311 311 310 308 308 308 307 307 306 305 304 305 304 304 304
318 316 315 315 316 318 321 324 324 323 323 324 324 324 324 324 323 324 324 324 323 320 320 321 321 321 322 322 323 321 320 321 320 320 321 320 318 319 320 320 320 320 320 319 320 319 319 319 319 319 319 319 319 319 319 318 318 319 319 319 319 319 319 319 318 317 317 316 315 314 313 313 313 312 311 310 309 308 307 306 305 305 304 303 303
317 316 315 313 313 314 317 320 320 320 321 322 323 323 324 324 323 323 323 323 322 321 321 321 322 323 321 321 322 320 319 321 321 321 322 321 320 320 320 320 320 321 320 320 320 320 320 319 319 319 320 320 319 319 319 319 319 319 319 319 319 319 319 318 318 318 318 317 316 315 315 315 315 314 314 312 310 309 309 308 307 305 305 304 303
317 318 317 314 313 312 313 313 314 315 317 319 320 320 321 322 323 323 323 322 322 323 323 322 321 321 320 320 321 321 320 321 321 321 321 321 320 320 319 320 320 321 320 320 319 319 318 317 317 319 320 319 318 317 317 318 320 320 320 319 320 319 319 318 318 318 317 317 317 317 316 316 315 315 314 313 312 312 311 310 309 307 306 305 304
317 318 318 315 314 313 312 312 312 312 313 314 316 316 317 318 320 322 323 323 323 323 323 323 321 320 319 320 321 321 322 321 321 321 321 320 320 320 319 320 320 320 319 319 318 318 318 317 317 318 319 319 317 316 316 317 319 320 319 319 319 319 319 319 318 317 317 317 317 316 317 317 316 314 313 313 313 313 312 312 310 308 307 306 305
314 315 316 315 314 313 313 313 312 312 311 311 311 311 312 314 316 317 319 320 321 322 323 321 319 319 321 321 320 319 319 319 319 319 319 319 319 319 319 318 318 317 317 316 316 316 318 318 318 318 319 319 318 318 318 318 318 319 318 318 318 319 319 319 318 318 317 316 316 316 316 316 316 315 313 312 312 312 312 311 310 309 308 307 306
313 313 313 314 314 313 313 313 313 312 312 311 310 309 309 310 312 313 313 313 314 316 316 314 313 315 317 315 312 312 312 313 313 314 315 315 315 315 315 315 314 314 314 313 312 312 314 315 316 317 317 318 319 319 320 319 319 319 319 319 318 318 318 319 319 319 317 317 316 316 316 316 316 315 314 312 312 311 311 311 309 308 308 307 306
314 313 313 312 312 312 312 312 312 312 312 311 311 310 308 307 308 310 310 311 310 310 310 309 309 310 311 309 308 310 309 309 311 311 311 311 311 311 312 312 313 313 313 312 312 312 314 315 316 315 315 315 316 317 317 318 318 319 319 320 319 319 319 319 319 319 318 317 317 316 316 315 315 314 313 312 311 310 310 311 309 309 308 307 306
314 314 312 311 311 311 310 310 310 311 311 311 310 310 309 308 307 308 309 309 308 309 309 308 308 308 308 308 309 310 308 309 311 311 310 310 311 312 312 312 313 313 312 311 311 312 313 315 316 316 316 316 315 314 313 313 314 316 317 319 319 320 320 320 320 319 319 318 317 316 315 315 314 314 313 312 310 309 309 309 310 310 309 307 305
313 312 311 310 310 309 308 307 307 308 309 310 309 309 308 308 308 308 308 306 306 307 308 307 307 307 307 308 309 308 308 308 310 309 309 309 310 311 311 311 309 309 309 310 310 310 311 312 313 314 314 314 313 311 309 309 311 313 315 317 317 318 318 319 320 319 318 317 317 316 315 314 314 313 312 311 309 308 308 309 309 309 309 307 305
311 311 309 308 308 308 308 307 307 307 307 308 308 308 308 308 307 307 307 306 306 307 307 307 307 307 307 307 307 307 306 307 308 308 308 307 306 305 305 305 304 304 305 306 306 306 306 308 310 311 311 311 310 309 308 307 309 312 313 314 315 316 316 318 319 319 318 317 316 315 314 313 313 312 311 309 308 307 307 307 307 308 308 306 304
310 310 309 309 308 308 308 307 307 307 307 307 307 307 307 308 308 307 307 307 307 307 306 307 307 307 307 307 306 306 306 306 307 307 306 305 303 302 302 302 301 301 301 301 301 301 302 304 305 307 309 309 310 311 311 311 311 312 312 312 312 313 314 315 317 317 317 316 315 313 312 312 312 310 309 308 307 307 306 306 306 306 306 304 302
307 307 308 308 308 308 308 307 307 307 307 307 306 306 306 307 307 308 308 307 307 307 307 307 307 306 306 306 306 306 307 307 307 306 305 304 303 303 302 302 302 302 301 300 300 300 301 301 301 302 304 305 306 309 311 311 312 313 313 312 312 311 312 314 315 316 315 314 314 312 311 311 310 309 308 307 307 306 306 306 306 305 303 302 301
304 304 305 305 306 306 307 306 306 306 306 306 306 306 306 306 306 306 307 307 307 307 307 307 307 307 307 306 306 306 306 307 307 306 305 304 304 304 303 303 303 303 303 302 300 300 300 300 300 301 303 304 305 306 308 310 312 313 313 313 312 311 313 315 315 314 314 313 313 312 310 310 309 308 307 307 306 306 306 306 305 303 302 301 300
301 302 303 303 304 304 305 304 304 304 304 304 305 306 306 306 306 306 306 306 307 307 307 307 306 307 307 307 306 306 306 306 307 306 305 305 305 305 305 305 304 304 304 303 302 300 300 300 300 301 303 305 307 307 308 310 311 312 312 313 312 311 313 315 314 313 313 312 311 311 310 309 308 308 307 306 306 306 305 304 303 302 302 300 298
300 301 301 301 302 302 303 303 303 303 303 303 303 304 304 305 305 305 305 305 305 305 306 305 305 306 306 306 306 306 306 306 306 306 306 306 305 305 305 304 304 304 305 304 303 302 300 300 301 301 303 306 309 309 310 310 311 311 312 312 312 311 312 313 313 311 311 310 310 309 309 308 308 308 307 307 306 305 304 303 303 302 300 298 297
299 300 300 300 300 300 301 301 302 303 303 303 303 303 302 303 303 304 304 304 304 304 304 304 304 305 305 305 305 305 306 306 306 306 305 305 305 304 304 304 305 305 305 305 305 304 302 301 301 302 304 306 308 310 311 311 311 311 311 311 311 311 311 312 311 310 309 308 308 308 307 307 307 307 307 306 305 303 303 302 301 299 297 296 295
299 299 299 299 299 300 300 300 301 302 302 302 302 302 302 302 302 302 303 303 303 303 303 304 304 304 304 304 304 304 305 306 306 306 306 305 305 305 305 305 306 306 306 306 306 305 303 302 303 305 307 308 309 309 310 311 311 311 311 311 311 311 311 310 310 309 308 308 307 307 307 307 306 305 304 303 302 302 301 299 297 296 295 294 294
299 299 299 299 299 299 299 300 300 301 301 301 301 301 302 302 302 302 302 302 302 302 303 303 303 304 304 304 304 304 304 305 305 305 305 305 305 305 305 305 305 306 306 306 305 304 303 304 306 308 309 310 310 310 310 310 310 311 311 310 310 310 310 309 309 308 308 307 307 307 306 305 303 302 301 301 300 299 297 295 294 294 294 294 293
298 298 298 299 299 299 299 300 300 300 301 300 301 301 301 301 302 302 302 302 302 302 302 303 303 303 303 304 304 304 304 304 304 305 304 305 305 304 304 304 304 305 304 304 304 304 304 306 308 309 310 310 310 310 310 310 310 310 310 310 309 309 309 308 307 307 307 306 306 305 304 303 302 301 300 299 297 295 294 294 294 293 294 294 294
298 298 298 298 299 299 299 299 300 300 300 300 301 301 301 301 302 302 302 302 302 302 302 302 302 303 303 303 303 303 304 304 304 304 303 303 303 303 303 303 303 303 303 304 304 305 306 307 308 308 309 309 309 308 308 308 309 309 309 309 308 308 307 306 305 306 305 304 303 303 302 301 300 299 297 295 294 293 293 293 293 294 294 294 293
298 298 298 298 299 299 299 299 299 299 299 300 300 300 300 301 301 301 301 302 302 302 302 302 302 302 302 302 303 303 303 303 303 303 303 303 303 303 303 303 303 303 304 304 305 306 307 307 307 307 308 308 307 307 307 306 306 306 307 307 307 306 305 304 304 304 304 303 302 300 299 298 296 295 294 293 293 293 293 294 294 294 293 293 293
299 299 299 299 299 299 299 299 299 299 299 299 299 299 299 300 300 300 300 301 301 301 302 302 302 302 302 302 303 303 303 303 303 303 303 303 303 303 304 304 304 304 305 306 306 307 307 308 308 307 307 307 307 306 306 305 304 304 305 305 305 304 304 303 303 303 302 300 298 297 295 294 293 293 292 293 293 293 293 293 293 293 293 292 292
298 298 298 298 298 298 299 299 299 299 299 299 299 299 299 299 299 299 300 300 300 300 300 301 301 302 302 302 302 302 303 303 303 303 303 304 304 303 304 304 304 304 305 306 307 307 307 307 307 306 306 307 307 306 304 303 303 303 303 303 303 303 302 301 301 300 298 296 295 294 293 292 292 292 293 293 293 293 293 293 292 292 292 291 291
298 298 298 298 298 298 298 299 299 299 299 299 299 299 299 299 299 299 299 299 300 300 300 300 300 301 301 301 301 301 302 302 302 303 303 303 304 304 304 304 304 304 304 305 306 306 306 305 305 305 306 306 306 305 303 302 302 302 302 301 301 300 299 297 296 295 294 294 293 293 293 292 292 293 293 293 293 293 293 293 292 292 292 291 291
298 298 298 297 298 298 298 299 299 299 299 299 299 299 299 299 299 300 300 300 300 300 300 300 300 300 300 301 301 301 301 300 301 302 302 303 303 303 303 303 304 304 304 305 305 305 305 305 305 306 306 305 304 304 303 302 301 301 301 299 297 295 294 294 293 293 294 294 294 293 293 292 293 293 293 293 293 293 293 293 292 292 292 291 290
298 298 298 298 298 298 298 298 298 298 298 298 298 298 298 298 298 299 299 299 299 299 299 300 300 300 300 300 299 299 299 299 299 301 301 302 302 303 303 303 303 304 304 304 304 304 305 306 306 305 304 304 304 303 302 301 301 300 298 296 294 293 293 293 293 294 294 294 294 293 292 292 292 292 292 292 292 292 292 292 292 292 291 291 290
Wind_Speed
31 31 30 29 31 30 28 29 30 28 28 29 30 28 26 23 20 19 20 21 19 19 19 16 14 12 12 11 10 8 6 4 4 4 4 3 4 4 4 5 6 5 5 6 7 8 7 6 5 5 5 5 6 10 11 10 10 13 16 16 15 14 14 15 13 11 14 15 14 16 15 14 15 13 11 13 14 14 13 12 11 9 8 9 10
29 30 31 30 30 28 27 29 30 29 27 26 25 24 24 21 19 21 22 22 20 19 19 16 13 11 11 11 10 8 7 6 5 6 5 5 4 3 4 5 5 6 6 6 7 7 7 5 4 3 3 4 5 6 7 9 10 12 15 15 14 13 13 14 13 11 12 13 13 15 15 15 16 15 13 13 13 14 15 15 13 12 10 9 8
30 30 31 31 30 29 29 30 29 28 27 26 24 24 23 21 21 22 22 21 20 18 16 14 13 11 9 10 9 9 9 7 7 7 7 6 6 6 6 7 7 7 6 6 6 6 5 4 4 4 4 4 5 5 6 7 9 11 13 14 13 12 13 13 13 12 11 11 11 11 12 13 14 14 15 14 13 12 13 13 13 12 11 10 8
33 31 30 32 33 30 30 32 30 28 29 27 25 24 24 24 23 24 22 20 20 18 15 13 13 12 10 10 9 8 9 7 7 8 8 7 7 6 6 8 9 8 7 7 6 6 4 4 5 5 5 5 5 6 6 7 7 8 11 13 14 13 13 13 13 12 11 11 10 9 10 9 10 11 12 13 13 12 12 12 12 12 11 11 11
36 34 33 36 37 32 30 33 31 31 31 27 24 24 25 26 25 24 22 21 20 18 15 14 14 14 14 13 12 10 10 9 9 10 9 7 7 5 5 6 6 6 7 8 6 5 4 4 6 7 6 6 5 5 5 5 5 6 8 11 13 13 13 13 13 13 12 11 9 8 7 7 8 8 8 10 12 12 12 12 12 12 12 12 13
36 37 37 38 37 32 30 32 33 33 30 25 23 24 26 27 25 24 23 22 20 18 16 14 14 15 14 14 14 12 11 10 11 11 10 8 8 7 6 6 4 4 7 9 6 4 4 4 5 6 6 5 5 5 4 3 2 3 4 7 10 11 11 12 12 13 13 13 12 9 6 5 7 9 7 7 9 10 10 10 10 10 10 11 12
35 36 37 38 36 32 29 31 34 33 29 24 23 24 27 27 24 24 24 22 20 18 17 15 14 13 12 12 11 12 12 13 12 11 10 10 9 7 6 6 6 4 8 10 6 4 4 5 5 5 5 5 5 5 5 4 3 2 2 3 6 7 7 9 11 12 13 13 13 11 9 6 5 8 8 6 6 6 5 4 5 6 6 7 8
36 36 36 37 37 35 32 32 34 32 28 25 23 24 27 27 25 24 25 23 21 19 17 15 14 13 13 12 11 11 13 15 14 12 11 10 10 9 7 6 5 4 8 11 7 5 6 5 4 4 4 4 4 4 4 4 4 4 5 4 3 5 5 6 7 8 9 10 10 12 11 8 7 7 7 6 4 4 3 2 2 2 2 3 4
36 36 36 36 37 37 34 33 32 31 28 26 25 24 26 27 25 25 26 24 21 20 18 17 15 13 14 14 13 14 14 15 14 12 12 12 11 10 10 9 8 6 7 11 10 7 6 5 4 5 5 4 3 2 2 2 1 1 2 3 3 3 5 6 6 6 6 6 8 11 11 8 8 8 7 7 6 4 4 4 3 3 3 3 3
35 34 34 35 37 37 35 33 32 31 29 27 25 24 26 27 26 26 27 26 24 22 20 19 18 15 14 15 15 17 17 16 14 14 14 14 13 12 11 11 10 9 8 10 11 9 6 4 4 4 4 3 3 3 3 4 5 5 4 1 2 3 4 6 6 6 5 5 6 10 11 9 8 8 7 6 7 6 5 5 4 4 5 4 3
36 35 34 34 35 35 35 34 32 31 29 27 26 25 25 26 26 27 27 27 26 25 23 22 20 17 16 17 18 18 19 17 16 16 16 15 15 14 13 12 11 10 10 9 10 9 5 4 3 3 2 3 3 2 0 1 2 2 2 1 3 3 4 4 4 4 5 5 5 6 9 10 9 8 7 6 6 6 6 6 6 5 5 6 5
34 34 33 33 33 34 35 35 33 32 31 30 28 28 27 27 27 27 27 28 28 27 26 23 21 19 17 18 19 19 18 17 16 16 17 17 16 16 15 13 12 11 10 10 9 9 8 9 9 9 9 9 9 8 8 8 8 6 5 4 4 5 4 3 1 2 3 5 5 4 6 7 6 6 6 5 5 5 6 6 5 5 4 4 4
28 30 32 32 32 32 34 35 36 34 34 33 32 31 30 30 30 29 29 29 29 28 26 23 21 20 19 18 18 17 17 17 15 15 17 18 17 17 16 15 14 12 11 10 10 10 10 11 11 11 11 11 11 11 12 11 11 10 9 8 8 7 6 5 3 2 1 2 3 3 3 3 4 4 4 4 5 5 6 7 7 7 6 5 4
24 25 28 30 30 30 31 34 36 36 36 35 34 33 32 33 34 33 34 34 29 26 24 22 22 22 20 18 16 15 15 16 15 14 16 18 17 17 17 15 15 14 12 12 11 10 10 10 10 10 10 11 11 11 11 11 11 10 9 9 8 8 7 6 5 4 3 2 1 1 2 2 2 3 3 4 4 4 4 5 6 7 5 4 6
21 20 20 23 26 28 29 30 33 34 35 35 36 35 34 36 31 25 29 32 26 23 23 22 24 24 22 18 15 15 15 15 15 14 15 17 18 17 17 16 15 15 14 13 12 11 10 10 9 8 8 9 9 9 10 10 9 9 9 8 8 8 7 6 5 5 5 4 3 3 3 3 2 2 1 1 2 2 2 3 3 3 3 5 6
20 18 17 17 19 22 25 29 31 32 32 34 36 36 36 37 30 17 18 22 18 19 22 23 25 26 22 18 16 17 17 16 16 16 15 16 18 18 17 16 16 16 15 14 13 12 11 11 10 9 9 9 8 8 8 8 8 8 7 7 7 7 6 5 5 5 5 4 4 4 4 4 3 3 2 1 1 0 1 1 2 2 3 5 6
19 17 15 13 14 16 17 20 24 26 29 31 32 34 35 37 32 21 19 21 21 24 26 25 26 26 23 19 17 18 19 18 17 17 16 15 16 17 16 15 15 15 15 14 14 13 12 12 11 10 9 9 9 8 7 7 7 7 7 7 6 6 6 6 5 5 5 5 4 4 5 4 4 4 3 3 3 2 1 1 1 0 1 3 4
17 15 13 11 11 11 11 11 13 16 21 25 26 29 32 30 26 24 25 24 25 29 31 28 26 27 25 21 19 20 19 19 18 17 16 15 14 14 14 14 13 13 14 13 13 13 12 11 10 10 10 9 8 9 8 7 7 7 7 7 6 6 6 6 5 6 6 6 5 4 4 5 5 4 3 3 4 3 3 2 2 2 2 2 1
19 18 16 14 12 11 9 9 10 10 11 14 15 18 21 19 20 24 25 24 25 30 32 29 27 28 27 24 22 22 21 21 20 18 17 16 14 14 13 12 12 12 12 12 12 12 12 11 10 9 8 8 7 7 7 7 7 6 6 7 6 6 6 5 5 6 6 6 5 5 5 5 5 4 3 3 3 3 4 4 5 4 4 4 4
19 18 16 14 13 12 11 10 10 10 10 10 10 10 11 12 17 22 22 23 26 27 27 28 28 28 27 27 25 23 22 22 21 19 18 16 15 14 13 13 12 11 10 10 11 12 11 11 10 8 7 7 6 5 5 4 4 4 4 5 5 5 5 4 4 4 5 5 4 4 4 4 4 4 3 3 2 3 3 4 5 4 4 4 5
16 15 13 11 11 11 12 12 11 11 11 10 9 9 11 13 15 15 15 19 25 26 25 25 28 29 29 29 27 24 23 23 22 20 18 17 16 15 15 14 14 13 11 11 10 10 10 10 9 8 7 6 5 4 4 4 3 3 2 2 2 3 3 3 3 3 3 3 2 2 2 2 3 3 3 2 2 2 2 3 3 3 4 4 5
14 13 11 10 9 9 10 10 11 11 10 10 9 9 9 11 13 12 10 14 22 27 27 26 28 31 31 29 28 26 23 23 23 21 20 19 18 17 17 16 15 14 12 10 9 9 9 9 8 8 7 6 5 4 5 5 5 5 5 4 4 4 3 3 3 3 2 2 2 2 2 1 0 1 1 2 2 3 3 3 3 3 4 5 6
12 11 10 9 8 7 8 8 8 8 7 7 8 7 7 9 11 11 10 11 17 25 27 26 28 31 29 28 28 28 26 25 26 24 22 21 20 19 19 17 16 15 13 11 10 9 8 8 8 7 6 6 5 5 5 5 5 5 6 6 6 5 5 5 5 4 4 4 3 3 4 4 3 3 3 3 3 3 4 4 4 4 5 6 7
12 11 9 8 7 6 6 6 6 6 5 4 4 5 7 10 11 11 11 12 16 23 26 27 27 28 29 29 29 30 29 28 27 25 23 23 22 20 20 19 17 16 14 13 12 11 10 9 8 7 6 6 6 6 6 6 6 6 6 6 6 6 6 6 7 6 6 6 5 5 5 5 4 4 4 4 4 4 4 5 5 6 6 7 7
13 12 9 7 7 7 7 6 6 6 6 5 4 5 8 11 12 11 12 14 16 19 23 25 26 27 29 31 31 30 28 25 25 24 23 23 22 22 23 23 20 18 16 14 14 13 12 11 10 10 9 9 8 8 9 9 9 8 8 8 8 7 7 7 7 7 7 7 7 7 6 6 5 5 5 6 6 5 5 6 7 7 8 9 9
12 12 11 8 8 7 8 7 6 6 7 8 9 9 11 13 13 12 13 15 17 17 20 24 27 29 32 34 32 28 23 22 24 25 25 25 25 26 26 24 21 19 17 16 16 14 13 13 12 12 12 11 10 10 11 11 12 12 11 11 11 12 11 10 9 9 9 9 8 8 8 7 6 6 7 7 7 7 7 8 9 10 10 11 11
11 12 11 10 9 9 7 7 7 6 7 8 9 11 12 14 14 14 15 17 18 19 20 23 25 26 28 28 26 22 21 23 25 24 23 23 24 25 24 21 19 19 19 18 18 16 15 14 15 15 14 13 12 13 14 15 15 15 15 15 15 15 15 14 14 13 12 12 11 11 10 9 7 7 7 8 8 9 9 10 10 11 12 13 13
14 14 13 11 11 10 9 8 7 7 8 9 9 10 12 13 15 15 16 18 20 20 21 22 22 20 19 18 17 17 19 22 25 25 22 21 22 22 20 19 19 19 19 19 18 17 17 17 17 18 17 16 16 18 19 19 18 17 17 18 18 18 18 18 17 16 16 15 14 14 14 12 10 9 8 8 9 10 11 12 13 13 13 14 14
17 17 16 14 13 12 10 9 7 7 8 9 9 9 10 13 14 15 16 16 18 19 18 18 17 16 15 15 14 13 14 17 21 21 20 20 20 20 19 19 19 18 17 17 17 17 17 17 17 19 21 21 21 21 20 20 20 19 18 19 20 21 21 21 20 19 19 19 18 17 17 15 13 12 10 10 10 11 12 14 14 14 14 15 15
17 17 17 16 15 14 13 11 9 7 6 7 6 7 9 12 13 14 14 14 14 14 13 12 12 13 13 13 12 12 12 13 14 13 13 13 13 13 13 13 12 12 11 10 10 11 12 12 13 15 17 19 19 18 17 19 21 21 20 21 22 24 24 23 23 22 22 22 21 21 19 18 17 15 13 13 12 12 13 14 15 15 15 16 16
14 15 15 16 17 17 16 14 12 9 6 5 4 5 7 10 11 12 12 11 11 11 11 11 12 13 13 12 11 11 10 10 10 10 10 10 9 9 9 8 8 8 7 7 7 8 8 8 8 9 11 12 13 14 14 15 17 19 20 21 23 24 24 24 24 24 24 24 24 23 22 21 20 17 15 14 14 13 13 14 14 15 16 17 17
12 12 13 16 17 17 16 16 15 13 10 7 6 6 6 8 10 10 10 10 9 10 10 10 11 12 11 10 10 10 10 10 11 10 9 8 8 8 8 8 8 8 8 8 8 8 8 7 8 8 8 9 9 9 10 11 13 15 17 18 20 21 22 23 24 25 26 26 26 26 25 24 22 20 17 16 15 14 14 14 15 16 18 20 19
12 11 11 15 17 16 15 13 13 13 12 9 8 7 6 6 8 8 9 8 8 9 9 9 10 11 10 11 11 10 10 11 12 11 10 9 9 9 9 9 10 10 10 10 9 9 9 9 9 10 10 10 10 11 11 12 13 13 14 15 16 17 19 21 23 25 27 28 27 27 27 25 23 21 18 16 16 15 13 14 16 18 21 23 22
11 12 12 14 15 16 15 14 12 10 11 12 12 11 8 7 8 8 7 7 8 10 10 9 9 10 10 11 12 12 11 12 12 12 12 11 11 11 11 12 12 11 11 11 11 12 12 12 12 12 12 13 13 14 14 14 14 13 13 13 14 16 18 19 20 22 25 26 27 28 28 26 23 21 19 17 17 14 14 15 16 19 23 24 23
10 12 10 8 8 10 11 10 9 8 9 12 12 11 9 8 7 7 6 5 7 9 9 9 10 9 9 10 12 12 12 12 12 12 12 11 11 11 11 10 10 9 10 10 10 11 12 12 13 13 13 13 13 14 14 14 13 13 14 15 16 17 17 17 17 18 20 23 26 28 27 24 22 21 19 17 16 15 16 17 18 20 23 24 23
11 8 6 5 5 7 8 8 5 4 7 11 9 7 7 7 6 6 6 6 7 8 7 7 8 9 9 9 9 9 10 11 12 12 11 10 9 8 7 7 7 6 7 7 7 9 10 10 11 12 14 15 14 14 14 13 13 14 14 16 17 18 18 16 15 15 17 21 25 26 24 22 21 20 18 17 17 17 18 19 20 22 23 22 22
12 9 6 4 2 2 2 1 3 7 3 4 4 2 2 4 5 7 7 7 7 7 6 6 6 7 8 9 9 9 9 10 11 10 9 8 7 7 7 7 7 8 8 7 8 9 10 10 10 11 13 14 15 15 15 15 15 15 16 17 17 18 17 16 14 14 16 20 24 24 22 21 20 19 18 19 19 20 20 22 22 22 22 21 22
13 13 9 7 5 3 2 3 7 10 9 5 4 5 4 4 4 5 7 8 8 8 7 7 6 7 8 9 10 10 10 11 11 11 11 10 9 10 10 10 11 12 11 10 10 10 11 12 12 12 13 14 14 14 15 15 16 16 17 18 17 17 16 14 14 15 19 22 23 22 21 20 19 19 19 21 21 22 22 22 21 21 22 23 25
13 14 12 10 9 6 4 4 5 6 7 8 10 12 12 11 10 8 7 8 9 10 9 8 7 7 8 9 10 11 11 12 13 13 13 12 12 13 13 14 15 15 14 14 14 13 13 13 14 14 15 15 15 14 15 16 16 17 18 19 19 17 14 14 15 18 21 23 22 21 20 20 20 21 21 23 23 22 22 21 21 22 24 26 27
12 12 11 11 10 8 7 7 7 7 8 8 10 12 12 12 13 13 12 11 12 14 14 13 12 10 9 9 9 10 12 12 13 13 13 14 15 16 17 18 17 16 16 17 17 17 16 15 15 16 16 16 16 15 16 16 17 18 19 19 19 16 13 14 16 19 21 21 21 21 22 22 22 22 23 23 23 22 22 22 23 25 27 29 30
11 11 11 11 10 9 9 9 9 9 10 10 11 11 10 10 9 12 14 14 15 16 16 17 17 16 15 13 12 13 14 14 15 16 17 18 18 18 18 18 18 18 19 20 19 20 20 19 17 17 17 17 17 16 16 16 16 16 17 17 16 14 13 14 16 19 20 20 21 22 22 22 22 22 23 23 23 23 23 24 25 27 29 30 31
12 12 13 13 13 12 12 12 11 11 12 13 13 13 12 12 11 11 12 13 15 15 15 16 17 18 18 17 16 16 15 15 15 17 18 19 19 19 19 18 18 20 21 21 21 23 23 20 18 17 17 17 17 17 15 15 14 13 14 14 14 13 13 14 16 18 20 21 22 22 22 21 21 21 21 22 22 23 24 25 27 29 29 29 29
16 16 16 16 16 15 14 13 13 13 13 14 15 15 14 13 12 11 11 12 13 15 16 16 16 17 18 18 19 19 17 16 16 16 17 18 18 18 19 18 19 20 21 22 23 24 23 20 17 16 16 16 16 16 15 14 13 13 12 13 13 13 14 15 16 18 20 21 21 21 21 21 21 20 21 22 23 24 25 26 27 27 26 27 27
21 20 20 19 19 19 16 13 10 10 11 13 14 15 14 13 12 12 13 13 13 13 14 14 14 15 16 17 19 20 20 20 19 18 19 19 18 18 18 19 20 22 23 24 25 24 21 18 16 16 16 16 16 16 15 14 13 13 13 13 13 14 14 15 17 18 19 20 20 21 21 21 20 20 22 23 24 25 25 25 25 24 24 25 25
24 23 23 23 23 23 22 19 15 12 11 12 11 11 11 11 11 12 14 15 16 16 15 15 15 15 16 17 19 21 22 22 21 21 23 23 22 22 22 22 23 25 25 25 24 23 20 17 17 17 17 17 17 16 15 14 13 13 14 14 15 14 14 15 16 18 19 20 20 20 20 20 21 22 23 23 23 22 22 21 21 21 22 23 24
24 24 24 24 24 24 25 25 23 21 19 18 17 15 13 12 12 12 13 14 16 17 18 18 18 18 18 19 19 21 22 23 22 22 23 24 23 22 22 22 24 25 26 25 24 22 21 19 18 18 18 18 18 16 14 13 13 14 15 16 16 15 14 15 17 18 19 19 19 19 19 19 20 20 20 20 19 19 18 18 19 20 21 23 24
22 22 23 23 23 24 25 25 26 26 26 25 24 23 21 20 19 18 18 18 18 18 19 20 21 21 21 20 20 20 20 20 19 19 20 22 23 23 23 22 22 22 23 24 25 24 22 20 18 18 18 18 16 14 13 13 14 16 16 16 16 16 17 17 18 18 17 17 17 16 16 17 17 16 16 15 15 16 17 18 20 22 23 24 24
21 21 22 22 23 23 23 23 24 25 26 27 28 28 27 26 25 24 24 24 24 24 24 24 24 23 23 23 23 22 21 20 19 19 19 21 23 24 25 25 24 21 19 21 24 23 20 17 16 16 17 16 15 14 13 13 14 15 16 16 17 17 16 16 15 15 14 14 14 14 14 13 13 12 12 13 14 16 17 19 20 21 21 21 21
21 21 22 22 23 23 23 23 22 22 23 25 26 28 28 28 27 27 26 26 27 27 28 28 28 28 27 27 27 27 26 24 23 22 21 20 21 23 23 24 24 22 19 19 20 19 17 16 16 16 16 15 14 13 12 13 13 14 15 16 15 13 12 12 11 11 10 10 11 11 11 11 11 11 11 13 15 16 17 18 19 19 19 19 19
22 22 22 23 22 22 22 22 23 23 23 24 26 27 27 28 28 28 27 27 27 27 28 29 29 29 29 29 28 28 28 28 27 26 25 24 23 23 23 23 22 22 20 20 20 19 18 17 16 16 16 14 11 10 11 12 13 14 14 13 11 10 9 8 8 7 7 8 9 9 10 10 11 11 12 14 16 18 19 20 20 20 20 20 20
21 21 21 21 21 21 21 22 23 24 26 27 29 29 30 30 31 31 32 32 33 32 33 32 31 31 30 30 30 30 29 29 28 27 26 27 27 26 25 24 23 22 21 21 21 20 18 17 16 15 13 10 8 8 10 12 13 12 11 10 8 7 6 5 5 6 7 7 8 8 8 9 9 11 14 17 19 20 21 22 22 22 21 21 21
Wind_Direction
175 177 183 184 186 189 180 175 186 180 167 173 180 183 187 189 192 193 194 196 192 187 187 185 179 172 167 168 171 181 197 199 171 168 194 224 249 244 213 200 198 186 172 168 171 174 182 192 198 202 213 221 212 208 211 213 211 212 212 213 215 216 217 218 221 221 216 219 221 221 229 233 228 228 229 227 228 228 224 219 218 223 233 237 229
179 182 186 188 191 189 177 176 184 178 173 184 192 194 196 197 198 193 189 189 187 183 179 173 168 162 159 163 161 162 180 205 204 191 201 208 199 203 212 208 207 203 191 178 173 172 178 186 184 178 187 195 198 200 204 212 214 214 214 215 216 216 219 223 228 229 224 228 231 230 235 235 229 233 235 228 227 231 233 231 225 223 229 240 239
180 183 186 188 188 181 177 180 183 180 182 193 203 205 204 200 196 190 184 180 175 171 167 158 157 156 152 155 155 156 165 189 212 217 224 218 207 213 209 193 202 215 207 191 182 174 169 167 160 157 164 171 179 183 188 205 216 217 218 220 221 220 222 227 230 231 232 234 233 231 234 234 234 236 234 230 228 227 226 226 227 227 229 232 232
178 180 182 183 179 177 180 182 181 183 190 199 205 208 205 198 191 187 181 174 169 165 162 157 152 153 159 164 165 161 165 182 201 207 217 223 223 221 196 178 189 207 217 217 205 189 173 148 140 144 149 153 161 174 189 205 215 218 221 226 230 232 232 232 233 234 234 231 225 223 227 232 238 238 231 228 227 225 224 222 224 227 228 230 231
174 174 175 177 178 179 182 183 183 188 195 201 204 206 202 195 190 186 179 172 171 170 168 165 160 164 174 178 179 175 171 177 179 179 188 198 200 196 179 174 180 187 208 222 216 194 179 155 145 145 148 152 150 157 175 190 205 215 221 228 233 238 238 236 235 234 231 225 217 216 220 226 236 236 227 224 222 219 220 223 229 234 236 241 245
174 172 172 177 181 183 184 184 187 192 198 203 205 205 198 193 190 185 180 178 179 179 176 175 175 179 184 183 184 183 174 169 165 156 154 159 163 170 178 189 197 180 188 202 205 184 173 158 147 145 151 157 153 149 153 157 176 202 209 217 224 231 236 237 235 232 230 225 217 215 218 229 237 231 218 216 218 214 214 219 227 234 238 246 250
178 177 176 179 184 186 185 187 191 195 199 202 204 203 196 194 193 186 185 187 188 186 183 185 188 191 194 189 186 185 170 158 153 146 141 139 141 152 169 192 214 204 185 188 188 165 153 149 143 142 147 145 138 139 135 124 119 108 112 168 200 211 219 229 230 228 230 227 220 219 224 223 218 218 214 212 214 210 209 220 228 233 240 246 248
181 182 182 182 186 189 188 189 194 197 198 201 204 202 197 196 196 193 191 193 194 192 189 191 196 200 200 196 193 190 172 155 149 144 138 133 130 134 138 154 174 181 185 184 172 152 151 154 154 150 148 140 137 150 148 128 112 94 74 83 142 178 181 198 214 219 227 227 217 216 217 204 188 198 203 197 193 189 185 197 212 209 216 226 234
183 185 184 186 189 193 193 192 194 198 199 203 205 203 201 199 199 198 194 194 196 195 193 194 199 202 203 201 198 189 171 154 149 144 139 135 129 126 124 126 129 135 173 186 176 163 163 170 168 153 143 138 148 171 183 190 217 318 359 49 94 145 159 165 178 191 207 213 207 207 202 189 191 199 199 196 193 184 183 194 191 165 148 160 185
186 189 189 191 192 194 196 195 194 198 201 203 205 205 205 204 203 202 199 196 197 197 197 196 198 201 205 210 203 185 167 156 152 149 143 138 129 124 122 121 122 123 142 176 186 186 186 193 195 191 190 195 207 231 253 270 284 287 287 274 130 133 141 150 158 162 170 182 189 195 194 191 197 198 196 199 197 190 185 184 178 159 136 131 147
189 193 193 193 193 193 196 197 195 196 198 203 207 207 209 210 208 207 204 200 198 199 199 196 195 196 204 213 205 183 169 162 158 153 147 140 134 130 128 125 123 122 125 146 173 184 178 153 147 159 152 143 157 176 245 350 331 307 299 208 151 139 130 132 147 149 150 163 166 176 192 200 206 205 201 200 197 193 190 184 175 161 134 116 98
188 191 192 193 194 194 196 197 196 196 200 205 210 213 213 214 212 209 207 204 201 201 201 196 190 188 196 206 199 182 174 169 161 154 149 143 141 139 135 131 126 125 125 127 138 143 130 118 116 112 103 102 104 103 96 87 83 83 80 85 93 96 93 71 61 143 152 159 154 149 174 191 204 210 208 207 210 208 210 210 201 197 177 143 104
185 188 194 197 198 199 200 201 201 202 205 207 211 214 215 215 214 209 205 201 200 202 204 198 188 185 189 193 192 186 183 179 166 155 150 147 145 141 136 134 131 129 130 129 126 125 121 117 117 115 111 108 107 105 101 96 93 93 92 93 93 93 91 78 69 83 113 165 175 173 180 197 213 221 230 245 257 252 244 249 247 244 241 215 168
184 190 196 201 204 204 205 207 207 208 209 209 211 213 215 217 214 209 202 197 194 199 205 201 188 184 186 185 189 196 197 192 179 162 152 149 146 140 135 134 132 130 129 130 129 127 125 122 118 118 116 111 111 111 107 103 101 102 103 106 109 108 108 109 106 103 104 119 147 168 192 213 222 236 260 280 290 281 258 258 259 256 250 210 172
177 184 192 201 207 209 210 211 212 212 212 212 212 212 215 213 205 192 188 188 187 194 202 200 188 182 182 181 189 207 214 206 192 177 161 153 148 143 139 137 133 129 127 125 126 127 125 124 122 118 113 112 115 116 112 110 107 106 109 112 115 114 114 118 115 111 115 123 128 127 138 146 144 163 203 244 268 276 257 252 255 250 218 178 164
155 166 175 187 198 207 213 214 215 216 215 215 214 213 214 212 203 182 179 188 196 208 209 200 190 183 180 180 190 209 218 212 201 192 178 162 153 148 144 142 137 131 128 126 125 124 121 119 119 114 108 108 111 110 107 107 106 106 108 110 112 113 115 117 110 108 113 118 124 125 128 127 117 121 128 132 170 254 280 270 268 247 209 179 173
140 152 161 172 185 197 209 216 218 219 218 219 220 217 217 216 215 215 216 216 222 227 218 203 193 186 181 183 196 209 215 215 208 199 188 174 162 157 151 149 146 138 134 131 128 126 123 120 117 114 110 104 103 106 104 101 100 99 98 95 98 104 108 109 103 102 105 105 106 113 120 120 107 102 103 104 101 88 80 59 34 311 201 178 179
132 142 147 157 174 184 190 198 208 216 220 223 225 224 222 220 224 231 230 226 226 224 215 202 194 189 186 189 201 208 214 217 215 206 194 183 175 171 166 161 156 151 145 140 137 134 129 126 122 117 114 107 102 105 107 106 104 101 98 95 95 95 94 93 91 91 95 97 98 100 104 102 96 87 80 93 101 99 98 94 85 90 84 88 108
133 136 139 143 145 149 155 161 172 186 206 215 217 223 223 219 225 232 231 231 227 219 213 206 197 192 191 194 203 210 212 214 217 214 200 190 186 184 182 177 172 169 162 156 153 149 142 138 134 127 123 118 111 108 106 105 105 104 105 106 103 96 88 84 81 79 83 89 90 88 86 89 90 81 61 64 81 84 88 95 96 90 82 78 74
134 132 132 135 132 129 133 139 152 163 174 187 191 196 198 199 212 223 230 235 228 216 212 208 199 196 198 199 206 211 208 209 214 213 204 197 197 197 196 196 193 189 181 172 167 162 159 155 150 147 142 135 130 126 119 111 108 104 105 110 111 107 104 107 101 87 83 85 82 77 78 84 87 83 74 64 54 49 62 80 82 75 70 64 58
128 128 129 129 125 126 132 136 144 153 165 180 186 182 182 188 197 205 218 229 227 219 215 209 201 202 205 203 207 209 205 207 211 211 208 204 203 205 209 210 207 204 197 186 179 174 173 171 169 169 169 167 166 166 172 175 166 157 153 156 152 142 144 149 145 132 114 109 104 96 78 70 67 60 59 56 38 13 18 43 45 29 22 17 14
124 127 132 134 131 129 131 136 143 153 166 174 177 178 183 186 181 176 188 214 223 220 217 211 203 203 206 205 207 208 206 208 212 213 212 210 212 216 217 217 214 211 207 201 195 191 189 191 193 192 193 197 200 195 196 198 201 206 210 215 215 209 212 215 201 193 193 201 187 184 209 234 301 325 340 345 332 327 335 353 1 349 345 344 341
135 135 138 139 143 144 140 140 141 149 164 171 170 168 169 174 169 164 169 189 208 211 209 205 199 200 205 206 207 209 207 207 211 214 214 213 216 218 219 223 223 218 218 218 215 218 218 216 217 215 211 213 217 218 218 215 216 225 227 226 228 232 238 242 239 232 230 240 242 220 217 227 241 256 271 294 306 309 312 318 323 322 325 327 324
150 154 159 160 162 164 159 156 145 136 144 166 172 153 140 145 151 154 158 169 190 201 202 200 198 200 205 206 207 210 207 204 205 208 212 215 214 217 225 228 226 223 225 228 228 232 235 234 239 245 246 245 242 245 247 244 241 241 236 232 236 242 249 253 253 251 247 249 255 253 244 242 248 262 282 298 305 303 298 297 299 301 306 310 311
151 152 160 173 182 186 179 169 158 143 132 131 135 128 125 132 141 150 156 163 176 190 196 200 201 203 207 209 209 208 205 203 201 203 209 213 216 223 227 222 220 223 227 229 230 232 234 237 244 253 260 260 259 262 264 264 265 259 249 246 250 253 259 262 260 258 258 255 254 258 262 265 268 278 292 301 307 307 299 294 291 293 298 302 304
144 139 141 147 157 177 188 182 174 161 144 134 130 124 123 128 139 150 157 162 169 177 188 198 204 207 209 210 211 209 205 206 208 208 209 211 215 222 222 217 217 224 227 229 232 234 236 237 240 248 255 258 259 263 267 270 271 268 261 259 259 260 261 263 263 263 265 264 263 262 264 271 281 289 293 300 305 304 300 297 296 297 298 299 301
147 144 146 141 135 145 163 173 176 167 153 148 142 135 131 132 140 152 163 169 174 179 186 194 204 210 211 211 212 212 210 212 218 219 218 219 222 225 226 227 229 232 235 237 238 241 245 247 249 251 252 252 255 260 265 267 267 267 266 265 265 265 264 263 262 261 262 265 267 268 271 276 283 287 290 295 296 295 296 297 297 297 298 301 304
167 164 161 150 138 136 135 139 143 139 144 149 146 140 139 138 141 151 163 171 179 187 192 195 202 212 218 217 217 217 213 213 219 226 231 236 238 238 240 242 241 240 242 243 244 248 253 256 256 253 247 247 258 265 264 260 259 260 264 266 267 268 269 269 265 260 259 261 263 268 274 277 279 282 284 288 292 295 296 296 296 296 298 302 305
173 176 175 166 154 148 144 142 137 133 138 143 141 139 139 144 147 152 163 171 177 185 192 197 203 211 217 219 221 223 222 218 222 230 236 238 239 241 243 243 241 240 241 243 246 250 253 254 253 250 246 249 259 265 263 258 256 257 264 267 267 268 271 271 268 263 259 259 261 266 273 276 276 276 276 277 285 295 296 293 293 295 299 302 304
157 162 171 174 172 165 159 158 158 153 145 134 131 134 137 142 144 148 157 166 174 186 196 200 200 201 205 211 215 217 218 216 217 220 221 220 221 223 224 225 226 227 229 234 239 244 249 252 251 250 249 252 257 260 260 259 257 259 266 270 270 271 271 269 267 264 259 257 258 262 268 271 271 269 268 269 276 288 293 291 290 293 298 301 304
141 144 154 166 173 173 169 167 165 165 164 154 145 143 144 145 144 145 149 153 165 181 189 191 188 188 194 198 197 195 194 193 194 192 191 194 196 198 199 201 205 212 218 227 234 239 245 252 255 256 257 258 258 259 260 259 257 258 263 267 270 272 270 268 265 262 259 257 257 259 261 263 263 263 261 263 267 276 287 290 289 293 298 300 301
164 156 151 149 153 157 161 164 167 169 168 167 166 153 145 147 150 155 156 155 162 166 166 173 179 182 186 184 177 177 179 180 181 183 188 194 198 204 209 213 219 225 231 238 244 249 251 254 259 263 264 264 264 265 265 264 263 262 262 265 268 270 270 269 265 262 259 258 257 257 256 256 257 257 256 260 264 268 280 289 291 296 302 301 300
187 179 158 147 143 137 132 136 150 164 167 168 171 165 156 155 157 161 162 163 173 171 164 170 180 183 187 185 184 187 187 185 186 192 200 202 206 212 219 227 235 238 242 247 253 258 262 265 266 268 272 274 274 274 271 268 268 269 269 270 270 269 269 268 266 263 259 257 256 254 252 251 252 252 254 260 262 264 274 284 289 296 301 300 298
161 155 135 129 134 130 118 105 101 124 149 157 162 160 158 163 166 174 178 173 177 180 180 185 189 190 192 192 193 197 196 194 199 206 211 211 214 219 226 236 243 245 248 254 258 263 266 269 272 274 277 280 281 279 276 271 269 273 278 279 278 276 273 270 268 266 261 257 256 253 250 249 249 248 252 258 261 265 272 279 288 295 296 295 295
122 137 124 108 115 120 120 110 89 87 120 142 156 161 167 178 181 187 198 190 179 184 195 204 203 203 206 205 206 210 210 207 209 215 221 224 226 226 227 232 237 240 247 254 259 263 263 263 267 270 272 276 279 281 282 279 276 278 281 282 282 283 281 276 272 269 264 258 253 249 245 245 246 248 251 255 259 264 269 276 286 291 289 289 291
80 102 116 115 121 120 123 129 115 77 110 126 134 148 170 183 186 188 198 201 197 199 206 211 212 217 221 221 220 220 220 221 221 222 228 235 236 230 225 229 238 246 254 262 265 266 264 262 260 261 263 267 270 274 279 281 283 284 284 284 284 284 283 280 276 273 264 252 245 241 237 238 244 248 250 254 258 263 271 280 288 288 287 288 291
61 63 79 94 122 206 181 125 329 312 293 133 114 107 159 167 178 190 198 203 207 208 206 207 215 224 230 235 238 235 232 234 236 240 248 254 256 257 259 263 269 271 270 272 273 270 267 268 267 264 263 263 265 268 272 278 283 285 285 287 288 287 286 285 282 274 256 240 235 234 235 239 244 246 250 256 260 266 276 283 285 285 288 290 291
40 36 40 43 14 313 297 343 331 312 300 292 287 275 248 205 197 202 207 213 216 214 211 213 222 231 237 244 247 242 236 237 244 258 269 275 280 284 285 283 284 283 277 274 276 273 269 269 271 270 268 268 269 269 271 276 280 282 285 288 292 293 291 284 273 258 242 232 230 234 238 242 246 248 252 258 262 268 276 281 282 284 286 288 287
23 24 28 27 12 357 351 336 315 302 302 300 290 282 272 259 251 245 243 241 237 233 231 233 237 237 236 239 240 236 236 239 247 258 268 275 282 286 285 283 284 281 276 275 282 284 277 270 267 267 267 269 272 272 272 275 277 280 283 287 291 292 287 274 260 249 239 233 233 239 243 244 247 251 255 259 264 272 277 279 280 282 283 284 284
10 10 11 10 1 350 338 324 309 297 293 292 294 296 291 277 262 254 258 264 259 255 253 252 252 249 243 242 242 240 240 243 245 250 258 267 274 277 276 278 280 279 277 280 287 293 290 281 274 271 270 271 273 275 273 273 274 276 279 284 288 288 279 265 255 246 240 236 235 238 240 242 248 256 261 265 269 273 274 275 278 281 283 284 284
353 350 347 343 338 333 328 321 311 300 292 289 294 301 303 295 273 255 258 265 264 261 260 258 258 258 257 258 259 257 256 259 259 261 265 269 272 273 273 275 277 279 281 283 286 294 296 289 280 277 277 278 280 280 275 272 272 274 276 281 284 280 270 262 254 246 242 240 239 239 239 243 251 259 263 266 266 268 271 275 279 282 282 283 285
322 328 332 329 322 318 314 309 302 295 292 291 289 288 288 289 287 276 265 261 257 256 257 257 257 257 258 260 263 262 262 263 263 264 266 268 269 270 270 271 271 273 276 279 283 290 293 289 283 284 285 284 283 282 279 276 274 275 275 276 274 267 261 259 256 250 247 244 243 245 248 252 255 256 257 260 263 268 274 278 279 280 281 283 285
309 309 314 317 316 313 310 310 309 301 294 289 284 282 280 278 282 283 270 256 248 246 246 249 253 255 255 256 258 261 262 262 262 263 263 264 265 267 269 269 268 269 273 277 282 286 287 286 286 288 287 284 283 283 282 279 275 271 269 266 262 258 256 258 258 256 254 252 252 254 257 258 257 257 260 265 271 276 278 278 279 281 283 286 288
307 303 302 302 304 304 303 304 311 313 303 290 281 278 275 269 265 264 259 253 249 244 239 239 243 249 252 253 256 259 261 261 260 260 261 263 264 267 270 270 270 272 275 277 279 280 281 281 283 284 284 285 286 286 283 279 273 267 262 258 254 252 256 260 262 259 257 256 255 256 258 259 261 265 270 275 277 278 279 281 283 286 288 290 292
301 300 298 295 294 295 295 293 293 296 299 296 286 273 263 254 249 250 250 251 253 253 251 247 243 243 247 249 251 253 255 256 258 260 264 268 269 270 271 270 270 271 272 272 271 271 271 273 276 279 282 285 286 284 278 271 265 261 256 252 247 247 255 264 265 260 257 254 255 257 260 264 267 271 274 276 277 279 282 284 286 288 290 292 294
294 293 292 291 289 289 290 290 289 287 287 290 292 287 277 267 260 258 256 254 254 255 256 255 253 251 249 249 249 250 251 254 257 261 265 267 268 269 268 266 266 267 267 265 264 262 262 264 269 274 278 281 281 278 270 264 260 256 251 248 246 248 257 264 262 258 256 257 259 262 265 268 271 272 273 275 277 279 281 283 285 287 289 290 291
293 292 290 290 291 291 291 291 289 287 284 283 285 287 287 283 278 274 271 268 264 261 259 257 256 254 252 251 250 250 252 252 252 256 261 264 265 266 266 266 268 269 266 261 257 253 251 253 259 268 274 275 274 270 265 260 256 252 248 247 249 252 255 257 255 253 255 259 262 264 267 270 272 273 275 277 280 283 287 290 291 291 289 289 291
291 292 291 291 293 296 296 293 290 288 285 282 280 281 282 283 282 280 277 274 271 269 266 262 259 257 256 255 254 254 255 255 253 254 260 264 266 265 265 267 270 271 268 261 256 252 249 253 263 270 270 268 266 265 262 255 251 250 248 247 250 253 253 254 255 255 256 259 263 267 271 272 273 274 276 281 288 295 299 300 298 295 292 291 291
290 291 291 292 294 294 292 291 288 285 283 281 279 278 279 281 281 279 276 273 270 267 264 262 260 258 257 257 257 257 258 259 257 255 257 263 267 266 265 266 268 268 267 263 260 259 264 272 273 267 263 262 263 261 256 246 242 244 246 247 250 253 252 254 255 253 254 259 266 271 272 271 270 272 279 290 299 304 305 304 301 298 295 295 295
287 287 286 287 289 288 286 284 283 282 282 281 280 279 278 278 277 276 275 272 269 266 264 261 259 258 256 256 257 257 258 259 258 257 257 261 264 265 265 264 263 262 261 260 261 266 270 271 265 257 254 255 255 249 241 235 233 235 239 243 245 245 245 247 249 253 262 270 275 276 274 271 273 280 294 306 311 311 309 305 302 298 297 298 298
284 284 284 284 282 280 279 278 279 281 283 284 284 283 281 279 278 277 276 274 273 271 268 264 261 259 259 259 260 260 260 259 258 258 259 260 260 261 262 261 260 259 258 256 258 262 261 257 253 249 241 233 225 220 223 228 228 229 230 229 226 228 233 239 249 263 273 277 280 282 282 285 295 308 317 319 317 314 311 307 304 301 299 299 300